| time (UTC) | temp F | wind direction | speed MPH | gust MPH | rain 1hr in | rain 24hr in | rain mn in | humidity % | barometer mb |
| 20260905071404 | 90 | 234 | 3.0 | 8.0 | 0.00 | 0.00 | 0.00 | 33 | 1010.9 |
| 20260905070405 | 90 | 236 | 3.0 | 9.0 | 0.00 | 0.00 | 0.00 | 33 | 1011.0 |
| 20260905064406 | 91 | 234 | 3.0 | 12.0 | 0.00 | 0.00 | 0.00 | 32 | 1010.9 |
| 20260905063404 | 91 | 263 | 3.0 | 9.0 | 0.00 | 0.00 | 0.00 | 32 | 1010.8 |
| 20260905061406 | 92 | 270 | 5.0 | 13.0 | 0.00 | 0.00 | 0.00 | 31 | 1010.5 |
| 20260905060404 | 92 | 265 | 6.0 | 10.0 | 0.00 | 0.00 | 0.00 | 31 | 1010.5 |
| 20260905054404 | 92 | 245 | 5.0 | 7.0 | 0.00 | 0.00 | 0.00 | 31 | 1010.5 |
| 20260905053404 | 92 | 259 | 3.0 | 8.0 | 0.00 | 0.00 | 0.00 | 31 | 1010.5 |
| 20260905050404 | 93 | 251 | 3.0 | 7.0 | 0.00 | 0.00 | 0.00 | 30 | 1010.3 |
| 20260905044403 | 94 | 238 | 1.0 | 8.0 | 0.00 | 0.00 | 0.00 | 29 | 1010.3 |
| 20260905043404 | 94 | 242 | 4.0 | 9.0 | 0.00 | 0.00 | 0.00 | 29 | 1010.3 |
| 20260905041404 | 94 | 245 | 5.0 | 8.0 | 0.00 | 0.00 | 0.00 | 28 | 1009.9 |
| 20260905033405 | 95 | 207 | 6.0 | 9.0 | 0.00 | 0.00 | 0.00 | 28 | 1009.7 |
| 20260905031404 | 96 | 244 | 2.0 | 6.0 | 0.00 | 0.00 | 0.00 | 29 | 1009.5 |
| 20260905030404 | 96 | 251 | 6.0 | 12.0 | 0.00 | 0.00 | 0.00 | 29 | 1009.3 |
| 20260905024404 | 97 | 254 | 4.0 | 9.0 | 0.00 | 0.00 | 0.00 | 28 | 1009.0 |
| 20260905023407 | 97 | 261 | 4.0 | 13.0 | 0.00 | 0.00 | 0.00 | 28 | 1008.8 |
| 20260905021405 | 98 | 246 | 4.0 | 12.0 | 0.00 | 0.00 | 0.00 | 27 | 1008.7 |
| 20260904223404 | 104 | 269 | 2.0 | 9.0 | 0.00 | 0.00 | 0.00 | 26 | 1008.9 |
| 20260904221404 | 103 | 226 | 2.0 | 3.0 | 0.00 | 0.00 | 0.00 | 27 | 1009.2 |
| 20260904214405 | 102 | 29 | 3.0 | 6.0 | 0.00 | 0.00 | 0.00 | 30 | 1009.6 |
| 20260904213403 | 101 | 268 | 6.0 | 9.0 | 0.00 | 0.00 | 0.00 | 31 | 1009.8 |
| 20260904210403 | 102 | 288 | 6.0 | 8.0 | 0.00 | 0.00 | 0.00 | 30 | 1010.1 |
| 20260904204404 | 102 | 139 | 3.0 | 8.0 | 0.00 | 0.00 | 0.00 | 33 | 1010.4 |
| 20260904203405 | 101 | 268 | 5.0 | 7.0 | 0.00 | 0.00 | 0.00 | 31 | 1010.5 |
| 20260904201405 | 103 | 118 | 2.0 | 5.0 | 0.00 | 0.00 | 0.00 | 32 | 1010.8 |
| 20260904200404 | 103 | 125 | 3.0 | 7.0 | 0.00 | 0.00 | 0.00 | 32 | 1011.0 |
| 20260904194404 | 101 | 174 | 4.0 | 12.0 | 0.00 | 0.00 | 0.00 | 35 | 1011.2 |
| 20260904191406 | 101 | 104 | 3.0 | 8.0 | 0.00 | 0.00 | 0.00 | 36 | 1011.6 |
| 20260904190403 | 100 | 156 | 2.0 | 7.0 | 0.00 | 0.00 | 0.00 | 35 | 1011.7 |
| 20260904183404 | 99 | 244 | 6.0 | 9.0 | 0.00 | 0.00 | 0.00 | 36 | 1012.2 |
| 20260904181404 | 98 | 147 | 3.0 | 5.0 | 0.00 | 0.00 | 0.00 | 37 | 1012.7 |
| 20260904180406 | 98 | 163 | 5.0 | 8.0 | 0.00 | 0.00 | 0.00 | 37 | 1012.8 |
| 20260904174404 | 97 | 148 | 3.0 | 8.0 | 0.00 | 0.00 | 0.00 | 42 | 1012.9 |
| 20260904173405 | 96 | 206 | 7.0 | 8.0 | 0.00 | 0.00 | 0.00 | 43 | 1012.8 |
| 20260904170406 | 94 | 103 | 6.0 | 8.0 | 0.00 | 0.00 | 0.00 | 46 | 1012.8 |
| 20260904164405 | 94 | 132 | 5.0 | 8.0 | 0.00 | 0.00 | 0.00 | 47 | 1012.8 |
| 20260904163406 | 93 | 167 | 5.0 | 9.0 | 0.00 | 0.00 | 0.00 | 48 | 1012.7 |
| 20260904161405 | 92 | 144 | 5.0 | 10.0 | 0.00 | 0.00 | 0.00 | 51 | 1012.5 |
| 20260904154405 | 90 | 136 | 5.0 | 5.0 | 0.00 | 0.00 | 0.00 | 53 | 1012.3 |
| 20260904153403 | 89 | 128 | 2.0 | 8.0 | 0.00 | 0.00 | 0.00 | 54 | 1012.3 |
| 20260904151405 | 88 | 148 | 3.0 | 7.0 | 0.00 | 0.00 | 0.00 | 56 | 1012.3 |
| 20260904150405 | 87 | 119 | 3.0 | 8.0 | 0.00 | 0.00 | 0.00 | 57 | 1012.2 |
| 20260904144404 | 85 | 127 | 5.0 | 5.0 | 0.00 | 0.00 | 0.00 | 60 | 1012.2 |
| 20260904143405 | 83 | 120 | 2.0 | 3.0 | 0.00 | 0.00 | 0.00 | 63 | 1012.1 |
| 20260904141404 | 83 | 94 | 2.0 | 3.0 | 0.00 | 0.00 | 0.00 | 62 | 1011.9 |
| 20260904140404 | 82 | 90 | 1.0 | 2.0 | 0.00 | 0.00 | 0.00 | 61 | 1011.8 |
| 20260904133404 | 82 | 90 | 1.0 | 1.0 | 0.00 | 0.00 | 0.00 | 59 | 1011.4 |
| 20260904131405 | 83 | 90 | 0.0 | 1.0 | 0.00 | 0.00 | 0.00 | 59 | 1011.1 |
| 20260904130406 | 83 | 90 | 0.0 | 1.0 | 0.00 | 0.00 | 0.00 | 58 | 1010.8 |
| 20260904124404 | 83 | 90 | 0.0 | 0.0 | 0.00 | 0.00 | 0.00 | 58 | 1010.6 |
| 20260904123405 | 83 | 90 | 0.0 | 1.0 | 0.00 | 0.00 | 0.00 | 57 | 1010.5 |
| 20260904114405 | 84 | 90 | 1.0 | 2.0 | 0.00 | 0.00 | 0.00 | 55 | 1010.3 |
| 20260904113404 | 84 | 90 | 1.0 | 3.0 | 0.00 | 0.00 | 0.00 | 54 | 1010.2 |
| 20260904111404 | 84 | 91 | 1.0 | 3.0 | 0.00 | 0.00 | 0.00 | 50 | 1010.2 |
| 20260904110404 | 84 | 91 | 2.0 | 3.0 | 0.00 | 0.00 | 0.00 | 50 | 1010.3 |